Location: Sungai Igah
(2.7333°N, 114.2500°E)
Time: 10:45:27
(UTC+00:00)

Cosmos 1633 Rocket - Pass Details

Date: 14 June 2021
Orbit: 606 x 624 km, 82.5° (Epoch: 04 August)

Event Time Altitude Azimuth Distance (km) Brightness Sun altitude
Exits shadow 20:57:18 - 173° (S) 2,703 6.2 -18.5°
Reaches altitude 10° 20:59:09 10° 168° (SSE) 1,971 5.5 -18.1°
Maximum altitude 21:03:21 48° 94° (E) 801 4.0 -17.2°
Drops below altitude 10° 21:07:35 10° 19° (NNE) 1,976 6.3 -16.2°
Sets 21:09:51 0° 13° (NNE) 2,881 7.1 -15.7°
